map of TSE home
Great Circle Mapper logo
TSE - Airport
Location
City:  Astana, Aqmola, Kazakhstan
Name:Astana International Airport
ICAO:UACC
IATA:TSE

Details
Type:Airport (Aerodrome, Airfield)
Use:Public/Civil, International (customs port of entry)
Latitude:5101'21"N (51.022500)
Longitude:7127'58"E (71.466111)
Elevation:1165 ft (355 m)
Variation:9.77E (WMM2015 magnetic declination)
0.05 annual change
Runways:1
Longest:11483 × 148 ft (3500 × 45 m), paved

Time
Time Zone:UTC+6
Local Time:

Weather
METAR:UACC 250630Z 10008MPS CAVOK 26/M01 Q1011 R04/0/0070 NOSIG RMK QFE727/0969
TAF:UACC 250500Z 2506/2606 08008G13MPS 9999 SCT040CB BKN100 TX28/2510Z TN14/2523Z
BECMG 2511/2513 05006MPS PROB40
TEMPO 2513/2520 VRB16MPS -TSRA SQ SCT030CB

Related Locations
Nearby:
Farthest:PNT: 10894 mi / 17532 km
Puerto Natales [Teniente Julio Gallardo], MA, CL

Find:

   beyond  
but within

Other Information
Maps:
NOTAMs:
Links:
Sources:

  
flag of Kazakhstan
flag of Astana
  

Sectional Chart

Flight Planning
at skyvector.com

Satellite Image

Google Maps Satellite view

 

Copyright © 2004-2016 Karl L. Swartz. All rights reserved.
The Great Circle Mapper name and logo are trademarks of the Great Circle Mapper.
All other trademarks mentioned herein belong to their respective owners.
Please see credits for attibutions and further copyright information.

  Follow gcmap on Facebook Follow gcmap on Twitter Follow gcmap on Google+ GCmap on LinkedIn

hCard Microformat

Geo Microformat